Wind_Speed
18 18 18 18 18 19 19 19 18 19 19 20 20 20 21 22 22 22 22 22 22 23 23 23 23 22 22 22 22 22 22 21 21 21 22 22 23 23 22 22 23 24 24
18 19 18 19 19 19 19 19 19 20 20 20 21 22 22 22 22 22 22 22 22 23 23 23 23 23 23 23 23 23 22 21 21 21 22 23 23 24 23 23 23 24 24
19 19 19 19 19 19 20 20 20 20 21 21 22 22 22 22 22 22 22 22 22 22 23 23 23 23 24 24 23 23 22 22 22 22 22 23 24 24 24 24 24 24 24
19 19 19 19 19 19 20 21 21 21 22 22 22 22 22 22 22 22 22 22 23 23 24 24 24 24 25 24 23 23 23 23 23 23 23 23 23 23 24 24 24 24 24
19 19 19 19 20 20 20 21 22 23 23 23 22 22 21 22 22 23 23 23 23 23 24 23 24 25 25 24 24 23 24 24 24 23 23 23 23 23 23 24 24 24 24
19 19 19 19 20 21 22 23 24 24 23 22 21 21 21 22 22 22 23 24 23 24 23 23 24 25 25 24 24 24 24 24 24 24 24 24 23 23 23 23 23 24 23
19 19 19 20 21 21 22 23 23 22 21 21 22 21 22 22 22 23 24 24 24 23 23 24 25 24 24 24 24 24 24 24 24 24 24 24 24 24 24 23 23 24 24
19 20 20 20 21 21 22 22 22 22 22 22 22 22 22 22 23 24 24 24 24 24 24 24 23 23 24 24 24 24 24 24 24 25 25 24 25 25 25 24 24 24 24
20 21 21 22 22 21 22 22 21 22 21 21 22 22 22 22 23 23 24 24 24 24 24 24 24 24 24 24 25 24 24 24 24 25 25 25 25 25 26 26 25 25 25
22 22 22 22 22 22 22 21 21 22 23 23 22 23 23 23 23 23 23 24 24 24 24 25 24 24 24 24 24 24 25 25 25 25 25 25 25 26 26 27 26 26 26
23 22 22 22 22 22 22 21 22 22 23 24 23 23 23 23 24 24 24 24 25 24 24 24 24 24 25 25 25 25 26 26 25 25 24 24 25 26 26 26 27 27 26
22 22 23 23 23 23 23 22 23 24 24 23 23 23 24 24 24 24 24 24 25 25 24 24 24 24 24 25 25 26 26 25 24 24 24 25 25 25 26 26 26 26 26
22 23 23 24 24 24 24 23 23 24 23 23 24 24 24 25 25 25 25 25 24 24 24 23 23 24 24 24 24 24 24 23 23 23 23 24 24 25 26 26 25 25 25
23 23 23 23 23 23 23 23 23 23 23 24 24 24 24 25 25 25 25 24 24 23 23 23 23 23 23 23 22 22 22 22 22 22 23 23 24 24 24 24 24 24 24
23 23 23 23 23 22 23 23 23 23 23 24 25 25 24 24 23 23 23 23 23 23 23 23 22 22 22 21 20 19 20 20 21 21 21 22 23 23 23 23 23 24 23
23 23 23 23 23 23 24 23 23 23 24 24 23 23 23 22 22 21 22 22 22 22 22 21 20 19 19 18 18 18 19 19 19 20 21 21 21 21 21 22 22 22 22
23 23 23 23 24 24 24 23 23 23 23 22 21 21 21 20 20 20 20 19 19 19 19 18 18 17 17 17 17 18 18 18 18 18 18 18 18 18 18 18 18 19 19
22 22 23 23 23 23 23 23 22 22 22 21 20 20 19 19 18 18 18 18 17 17 17 17 16 16 16 16 16 16 16 16 16 17 16 16 16 16 16 16 16 17 17
21 21 22 22 22 22 22 22 22 21 20 20 19 19 19 19 18 18 17 15 15 14 14 15 15 15 15 15 15 15 15 15 15 15 15 14 14 14 15 15 16 15 16
22 21 21 21 21 21 21 21 21 20 20 19 18 18 18 18 17 16 16 15 14 14 13 13 13 13 14 14 14 15 15 15 15 14 14 14 14 14 14 14 15 15 15
22 22 21 21 21 21 21 20 20 19 19 18 18 17 17 17 15 15 15 14 14 14 13 13 13 13 13 14 15 15 15 15 14 14 14 14 13 13 13 14 15 14 14
22 22 21 21 20 20 20 19 19 19 19 19 18 17 17 16 16 15 15 15 15 15 14 14 14 15 14 14 14 14 14 14 14 14 14 13 13 12 13 14 14 14 13
22 22 21 20 19 19 19 18 19 19 19 18 18 17 17 17 17 17 16 15 15 15 15 14 14 14 14 14 14 14 14 14 14 13 13 12 12 12 12 12 12 12 12
21 20 19 19 18 18 18 18 18 18 18 18 18 17 16 15 16 16 15 15 15 15 14 13 13 13 14 14 15 15 15 15 14 13 12 12 11 11 12 11 11 11 11
20 19 18 18 18 17 17 16 17 17 17 17 17 17 17 16 16 16 16 16 16 16 15 14 14 15 15 15 15 15 15 14 14 13 13 12 12 12 12 12 12 12 11
19 18 18 18 18 18 17 17 17 17 17 18 18 18 18 18 17 17 17 18 17 17 16 16 16 16 16 15 15 15 15 14 14 14 13 13 13 13 13 13 12 12 12
Wind_Direction
260 256 256 259 261 263 265 263 262 263 264 262 263 265 266 264 265 267 270 270 271 272 274 275 277 276 278 279 280 281 282 280 278 277 276 278 279 279 281 279 278 277 276
260 258 260 263 263 262 262 265 266 267 268 268 269 269 269 268 268 269 269 270 271 272 273 274 275 275 278 278 278 279 280 279 279 277 276 278 280 279 281 281 279 279 277
260 259 264 265 265 264 265 267 267 269 270 270 270 270 270 269 269 269 269 269 271 272 273 275 275 276 277 277 276 276 278 278 278 277 278 278 279 279 279 280 281 281 282
262 263 266 266 265 264 266 267 267 269 272 270 270 271 270 270 269 268 269 271 271 273 274 274 274 275 276 276 275 275 276 277 278 278 280 280 279 280 280 281 283 283 283
264 265 266 265 264 265 266 266 268 271 272 271 271 270 270 270 269 268 269 271 271 272 275 277 276 274 274 274 274 274 275 276 277 277 279 280 280 281 282 283 284 284 285
264 263 265 267 266 267 268 269 271 272 271 271 270 270 271 271 270 269 270 272 271 273 275 277 277 275 272 271 273 274 275 275 276 277 278 278 280 282 283 284 285 285 287
268 267 267 267 268 269 270 270 271 272 269 268 270 273 273 272 271 270 271 273 272 271 273 275 277 275 273 272 273 274 274 274 275 277 277 278 279 281 283 284 284 284 285
269 271 272 270 269 268 269 270 271 270 268 269 270 271 274 274 274 274 273 273 271 271 273 274 274 274 274 274 275 276 276 275 276 276 277 277 277 279 281 283 285 285 285
271 273 273 271 270 269 270 271 270 269 268 269 269 271 272 273 276 277 275 272 271 272 274 274 273 274 274 274 275 277 277 277 278 277 277 277 278 279 280 282 283 283 283
271 272 271 271 270 269 269 270 269 269 269 268 269 271 272 273 276 277 275 272 271 273 274 273 272 274 274 274 275 277 278 279 279 279 278 277 278 278 280 281 282 282 282
269 270 270 271 272 271 270 270 270 270 270 270 271 272 274 276 278 279 278 276 275 273 273 272 272 273 273 274 275 277 279 280 279 280 279 278 277 278 278 280 281 282 282
268 269 270 271 273 273 271 272 273 272 271 270 271 274 276 278 279 279 280 280 278 275 273 272 271 272 273 274 275 277 279 280 280 280 279 279 279 279 280 281 281 282 283
268 270 270 270 272 273 271 271 273 273 272 271 273 276 279 278 278 279 279 278 277 276 273 271 272 273 274 276 276 277 279 281 282 280 280 280 280 281 281 281 282 283 284
269 270 270 270 271 271 271 272 273 273 272 273 276 278 279 279 279 278 277 275 274 274 272 271 273 273 275 277 277 278 281 282 282 281 281 281 282 283 282 282 281 283 285
268 269 272 271 270 271 272 272 272 274 275 276 277 278 277 279 279 278 276 274 273 274 273 272 272 273 274 275 275 278 281 283 283 282 283 283 282 282 283 283 283 283 284
269 270 271 270 269 270 272 274 274 274 275 277 277 277 277 278 279 277 275 274 274 274 271 269 270 270 271 271 273 278 281 284 284 285 285 283 282 283 284 284 284 284 284
269 270 270 270 269 271 272 273 273 274 275 275 276 276 277 276 276 275 274 273 274 273 272 270 270 270 270 272 275 280 283 285 286 287 286 285 284 284 285 288 288 287 286
270 271 271 270 270 270 271 271 272 274 274 273 274 275 275 275 274 274 276 276 276 275 274 271 270 270 270 271 275 279 283 286 287 289 288 286 284 284 287 290 289 288 289
270 270 271 272 271 270 270 269 269 271 272 273 275 276 275 275 275 276 277 278 279 277 276 274 273 269 268 270 274 278 282 286 288 290 291 288 285 284 286 288 291 291 292
271 270 271 271 269 269 268 267 266 268 270 272 274 273 275 275 276 275 274 275 277 278 276 276 274 270 269 269 272 276 279 283 285 285 287 287 286 289 291 292 294 291 291
271 270 270 270 268 268 267 266 265 267 268 269 271 272 273 273 273 272 272 273 275 275 274 275 271 269 271 271 272 275 277 280 282 284 287 289 289 291 293 295 295 294 293
269 269 270 269 267 267 268 264 262 265 266 268 270 269 268 268 267 268 269 272 274 273 270 271 271 273 272 271 274 275 274 276 280 283 284 285 287 290 292 293 293 293 294
269 268 267 266 265 265 265 263 262 262 264 265 267 268 268 268 266 265 267 269 271 270 267 268 272 273 272 271 272 275 277 277 278 279 279 280 283 288 295 296 295 293 295
268 267 265 264 263 263 262 263 263 262 262 262 264 264 265 265 264 265 266 267 267 264 261 263 271 273 272 271 271 274 276 276 275 274 274 276 280 285 291 294 299 299 298
265 262 260 261 260 259 257 257 258 261 263 264 264 263 263 264 264 265 267 267 266 263 262 266 271 271 270 269 270 272 272 270 269 270 270 273 277 280 284 289 295 296 296
259 258 259 259 258 257 255 254 255 259 263 265 266 265 264 264 265 266 268 268 266 264 263 268 270 270 269 268 269 268 268 267 266 267 269 271 273 275 279 284 289 290 291
Height
5797 5797 5798 5798 5799 5799 5800 5800 5800 5800 5800 5800 5801 5801 5800 5800 5800 5800 5800 5800 5800 5800 5800 5799 5799 5798 5797 5796 5796 5795 5794 5793 5792 5791 5790 5789 5788 5787 5785 5784 5783 5782 5781
5792 5792 5793 5793 5794 5794 5794 5794 5795 5795 5795 5795 5794 5794 5794 5794 5794 5794 5794 5793 5793 5793 5793 5793 5792 5792 5791 5790 5789 5788 5787 5786 5786 5785 5784 5783 5781 5780 5779 5778 5776 5775 5774
5787 5788 5788 5788 5788 5789 5789 5789 5789 5789 5789 5788 5788 5788 5788 5787 5787 5787 5787 5787 5786 5786 5786 5786 5785 5785 5785 5784 5783 5782 5781 5780 5779 5778 5777 5776 5775 5774 5772 5771 5770 5769 5767
5782 5782 5782 5782 5783 5783 5783 5783 5783 5782 5782 5782 5781 5781 5781 5780 5780 5780 5780 5780 5780 5780 5779 5779 5778 5778 5778 5777 5776 5775 5775 5774 5773 5772 5771 5770 5768 5767 5766 5764 5763 5762 5760
5777 5777 5777 5777 5777 5777 5777 5777 5776 5776 5775 5775 5775 5774 5774 5773 5773 5774 5773 5773 5773 5773 5772 5771 5771 5770 5770 5770 5769 5769 5768 5767 5766 5765 5764 5763 5762 5761 5759 5758 5756 5755 5753
5771 5771 5771 5771 5771 5771 5770 5770 5770 5769 5769 5768 5768 5767 5767 5767 5767 5766 5766 5766 5766 5766 5765 5764 5764 5763 5763 5762 5762 5761 5761 5760 5759 5758 5757 5756 5756 5754 5753 5751 5750 5748 5747
5766 5766 5765 5765 5765 5765 5764 5763 5763 5762 5762 5762 5761 5761 5760 5760 5760 5759 5759 5759 5759 5758 5758 5757 5757 5756 5755 5755 5755 5754 5754 5753 5752 5751 5750 5750 5749 5748 5746 5745 5743 5742 5740
5760 5760 5759 5759 5759 5758 5758 5757 5757 5756 5756 5755 5755 5755 5754 5754 5753 5752 5751 5751 5751 5751 5750 5750 5749 5749 5748 5748 5747 5747 5746 5745 5744 5744 5743 5742 5741 5740 5739 5738 5736 5735 5734
5754 5754 5753 5753 5752 5752 5751 5750 5750 5750 5749 5749 5749 5748 5747 5747 5746 5745 5744 5743 5743 5743 5742 5742 5741 5741 5741 5740 5740 5739 5739 5738 5737 5736 5735 5735 5734 5732 5731 5730 5729 5728 5727
5748 5748 5747 5746 5746 5745 5745 5744 5744 5743 5743 5742 5742 5741 5740 5740 5739 5738 5736 5735 5735 5735 5734 5734 5734 5733 5733 5732 5732 5732 5731 5730 5729 5728 5728 5727 5726 5725 5724 5723 5722 5720 5719
5741 5741 5740 5740 5739 5738 5738 5738 5737 5737 5736 5736 5735 5735 5734 5733 5732 5730 5729 5728 5727 5727 5726 5726 5725 5725 5725 5724 5724 5724 5724 5722 5721 5720 5720 5719 5718 5717 5716 5715 5714 5713 5712
5735 5734 5734 5734 5733 5732 5732 5731 5730 5730 5729 5729 5728 5728 5726 5725 5724 5723 5722 5720 5719 5719 5718 5718 5717 5717 5717 5716 5716 5716 5715 5714 5713 5712 5711 5711 5710 5709 5708 5707 5706 5705 5704
5728 5728 5727 5727 5726 5726 5725 5724 5724 5723 5723 5722 5721 5720 5719 5718 5716 5715 5713 5712 5711 5710 5710 5710 5709 5709 5709 5708 5708 5708 5707 5706 5706 5705 5704 5703 5703 5702 5701 5700 5699 5698 5696
5721 5721 5720 5720 5719 5719 5719 5718 5717 5717 5716 5715 5714 5712 5711 5710 5708 5706 5705 5704 5703 5702 5702 5702 5701 5701 5701 5701 5701 5700 5700 5699 5698 5698 5697 5696 5695 5694 5693 5693 5692 5690 5689
5713 5713 5713 5713 5712 5712 5712 5711 5710 5710 5708 5707 5706 5705 5704 5703 5701 5699 5697 5696 5696 5695 5694 5693 5694 5694 5694 5694 5694 5693 5693 5692 5692 5691 5690 5689 5688 5687 5686 5685 5685 5683 5682
5706 5706 5705 5705 5705 5705 5704 5704 5703 5702 5701 5700 5698 5698 5697 5696 5694 5692 5690 5689 5688 5688 5687 5687 5687 5687 5687 5687 5687 5687 5686 5686 5685 5685 5684 5683 5682 5681 5680 5679 5678 5677 5676
5698 5698 5697 5697 5697 5697 5696 5696 5696 5695 5694 5693 5692 5691 5690 5689 5688 5686 5684 5683 5682 5681 5681 5681 5681 5681 5681 5681 5681 5681 5681 5680 5679 5678 5677 5676 5676 5675 5674 5673 5672 5671 5670
5690 5689 5689 5689 5689 5689 5689 5688 5688 5687 5687 5686 5686 5685 5684 5683 5682 5680 5679 5678 5677 5676 5675 5675 5675 5675 5675 5675 5675 5675 5675 5675 5674 5673 5672 5671 5671 5670 5669 5668 5667 5666 5664
5682 5682 5682 5681 5681 5681 5681 5681 5681 5680 5680 5679 5679 5678 5677 5676 5676 5675 5674 5673 5672 5671 5670 5670 5670 5670 5670 5670 5671 5671 5670 5670 5669 5669 5668 5667 5666 5665 5664 5663 5662 5661 5660
5674 5674 5674 5673 5674 5674 5674 5674 5674 5673 5673 5673 5673 5672 5671 5671 5670 5669 5668 5668 5667 5666 5666 5666 5665 5666 5666 5666 5666 5666 5666 5665 5665 5664 5663 5662 5662 5661 5660 5658 5657 5656 5655
5666 5666 5666 5666 5666 5666 5666 5666 5666 5667 5667 5667 5666 5666 5665 5665 5664 5664 5663 5663 5662 5662 5661 5661 5661 5661 5661 5661 5661 5661 5661 5661 5661 5660 5659 5658 5657 5657 5655 5654 5653 5652 5650
5658 5658 5659 5659 5659 5659 5659 5659 5660 5660 5660 5660 5660 5659 5659 5659 5658 5658 5658 5657 5657 5657 5657 5657 5657 5657 5656 5656 5656 5656 5656 5656 5656 5656 5655 5654 5654 5653 5651 5650 5649 5648 5646
5650 5651 5651 5651 5652 5652 5652 5652 5653 5653 5653 5653 5653 5653 5653 5653 5652 5652 5652 5652 5652 5652 5652 5652 5652 5652 5652 5652 5652 5652 5652 5652 5652 5651 5651 5650 5650 5648 5647 5646 5645 5644 5642
5643 5643 5644 5644 5645 5645 5646 5646 5647 5647 5647 5647 5647 5647 5647 5647 5647 5647 5647 5647 5647 5647 5647 5647 5647 5647 5647 5646 5646 5647 5646 5646 5646 5647 5647 5646 5645 5645 5643 5643 5641 5640 5639
5636 5636 5637 5637 5638 5639 5639 5640 5640 5641 5641 5641 5641 5641 5641 5641 5641 5641 5641 5641 5641 5641 5641 5641 5641 5641 5641 5641 5641 5641 5641 5642 5642 5642 5642 5642 5641 5640 5640 5639 5638 5636 5635
5629 5630 5630 5631 5632 5633 5633 5634 5634 5635 5635 5635 5635 5635 5635 5635 5635 5635 5635 5635 5635 5635 5635 5636 5636 5635 5636 5636 5636 5636 5636 5637 5637 5637 5637 5637 5636 5636 5635 5635 5634 5632 5631